Time,TemperatureF,DewpointF,PressureIn,WindDirection,WindDirectionDegrees,WindSpeedMPH,WindSpeedGustMPH,Humidity,HourlyPrecipIn,Conditions,Clouds,dailyrainin,SoftwareType,DateUTC
2013-04-15 00:09:00,27.5,27.3,30.13,SSW,202,0.0,-999.0,99,-99.99,,,0.00,Acu-Link.com,2013-04-15 04:09:00,
2013-04-15 00:25:00,26.6,26.4,30.13,NNE,22,0.0,-999.0,99,-99.99,,,0.00,Acu-Link.com,2013-04-15 04:25:00,
2013-04-15 00:40:00,26.2,26.0,30.15,NE,45,0.0,-999.0,99,-99.99,,,0.00,Acu-Link.com,2013-04-15 04:40:00,
2013-04-15 00:55:00,26.4,26.2,30.15,NW,315,0.0,-999.0,99,-99.99,,,0.00,Acu-Link.com,2013-04-15 04:55:00,
2013-04-15 01:10:00,25.9,25.7,30.15,WSW,247,0.0,-999.0,99,-99.99,,,0.00,Acu-Link.com,2013-04-15 05:10:00,
2013-04-15 01:25:00,25.5,25.3,30.16,East,90,2.2,-999.0,99,-99.99,,,0.00,Acu-Link.com,2013-04-15 05:25:00,
2013-04-15 01:41:00,26.1,25.9,30.16,North,0,0.0,-999.0,99,-99.99,,,0.00,Acu-Link.com,2013-04-15 05:41:00,
2013-04-15 01:56:00,25.5,25.3,30.16,NNE,22,0.0,-999.0,99,-99.99,,,0.00,Acu-Link.com,2013-04-15 05:56:00,
2013-04-15 02:26:00,25.0,24.8,30.16,West,270,2.7,-999.0,99,-99.99,,,0.00,Acu-Link.com,2013-04-15 06:26:00,
2013-04-15 02:42:00,24.8,24.6,30.16,NNW,337,0.0,-999.0,99,-99.99,,,0.00,Acu-Link.com,2013-04-15 06:42:00,
2013-04-15 02:57:00,24.6,24.4,30.16,WNW,292,0.0,-999.0,99,-99.99,,,0.00,Acu-Link.com,2013-04-15 06:57:00,
2013-04-15 03:42:00,24.3,24.1,30.17,ESE,112,2.2,-999.0,99,-99.99,,,0.00,Acu-Link.com,2013-04-15 07:42:00,
2013-04-15 03:58:00,24.3,24.1,30.18,WNW,292,0.0,-999.0,99,-99.99,,,0.00,Acu-Link.com,2013-04-15 07:58:00,
2013-04-15 04:13:00,24.1,23.9,30.18,North,0,0.0,-999.0,99,-99.99,,,0.00,Acu-Link.com,2013-04-15 08:13:00,
2013-04-15 04:28:00,23.7,23.5,30.18,NE,45,0.0,-999.0,99,-99.99,,,0.00,Acu-Link.com,2013-04-15 08:28:00,
2013-04-15 04:44:00,23.4,23.2,30.19,SSE,157,1.1,-999.0,99,-99.99,,,0.00,Acu-Link.com,2013-04-15 08:44:00,
2013-04-15 04:59:00,23.0,22.8,30.19,ENE,67,0.0,-999.0,99,-99.99,,,0.00,Acu-Link.com,2013-04-15 08:59:00,
2013-04-15 05:14:00,22.5,22.3,30.19,NE,45,0.0,-999.0,99,-99.99,,,0.00,Acu-Link.com,2013-04-15 09:14:00,
2013-04-15 05:29:00,21.9,21.7,30.21,NNW,337,0.0,-999.0,99,-99.99,,,0.00,Acu-Link.com,2013-04-15 09:29:00,
2013-04-15 05:44:00,21.9,21.7,30.21,SE,135,0.0,-999.0,99,-99.99,,,0.00,Acu-Link.com,2013-04-15 09:44:00,
2013-04-15 06:00:00,22.1,21.9,30.23,NE,45,0.0,-999.0,99,-99.99,,,0.00,Acu-Link.com,2013-04-15 10:00:00,
2013-04-15 06:15:00,22.1,21.9,30.24,West,270,0.0,-999.0,99,-99.99,,,0.00,Acu-Link.com,2013-04-15 10:15:00,
2013-04-15 06:30:00,21.9,21.7,30.25,NE,45,0.0,-999.0,99,-99.99,,,0.00,Acu-Link.com,2013-04-15 10:30:00,
2013-04-15 06:45:00,23.5,23.3,30.24,East,90,1.7,-999.0,99,-99.99,,,0.00,Acu-Link.com,2013-04-15 10:45:00,
2013-04-15 07:00:00,25.0,24.8,30.26,SW,225,0.0,-999.0,99,-99.99,,,0.00,Acu-Link.com,2013-04-15 11:00:00,
2013-04-15 07:16:00,29.3,29.1,30.27,ESE,112,0.0,-999.0,99,-99.99,,,0.00,Acu-Link.com,2013-04-15 11:16:00,
2013-04-15 08:01:00,33.6,29.9,30.28,South,180,1.7,-999.0,86,-99.99,,,0.00,Acu-Link.com,2013-04-15 12:01:00,
2013-04-15 08:32:00,32.4,29.8,30.29,SW,225,0.0,-999.0,90,-99.99,,,0.00,Acu-Link.com,2013-04-15 12:32:00,
2013-04-15 08:47:00,37.4,32.1,30.28,SSE,157,2.2,-999.0,81,-99.99,,,0.00,Acu-Link.com,2013-04-15 12:47:00,
2013-04-15 09:02:00,37.2,31.9,30.28,SE,135,1.1,-999.0,81,-99.99,,,0.00,Acu-Link.com,2013-04-15 13:02:00,
2013-04-15 09:17:00,39.4,32.1,30.28,SSE,157,4.2,-999.0,75,-99.99,,,0.00,Acu-Link.com,2013-04-15 13:17:00,
2013-04-15 09:32:00,39.2,32.3,30.27,SSW,202,1.1,-999.0,76,-99.99,,,0.00,Acu-Link.com,2013-04-15 13:32:00,
2013-04-15 10:03:00,38.8,30.9,30.28,West,270,3.2,-999.0,73,-99.99,,,0.00,Acu-Link.com,2013-04-15 14:03:00,
2013-04-15 10:33:00,43.0,31.7,30.28,SSW,202,3.7,-999.0,64,-99.99,,,0.00,Acu-Link.com,2013-04-15 14:33:00,
2013-04-15 10:49:00,41.9,30.6,30.28,SSE,157,1.7,-999.0,64,-99.99,,,0.00,Acu-Link.com,2013-04-15 14:49:00,
2013-04-15 11:04:00,44.1,31.1,30.27,South,180,0.0,-999.0,60,-99.99,,,0.00,Acu-Link.com,2013-04-15 15:04:00,
2013-04-15 11:19:00,45.9,31.5,30.27,SSE,157,3.2,-999.0,57,-99.99,,,0.00,Acu-Link.com,2013-04-15 15:19:00,
2013-04-15 11:34:00,45.5,30.7,30.27,ENE,67,3.7,-999.0,56,-99.99,,,0.00,Acu-Link.com,2013-04-15 15:34:00,
2013-04-15 11:49:00,46.4,31.1,30.25,SSW,202,3.2,-999.0,55,-99.99,,,0.00,Acu-Link.com,2013-04-15 15:49:00,
2013-04-15 12:06:00,46.8,30.6,30.25,SW,225,1.7,-999.0,53,-99.99,,,0.00,Acu-Link.com,2013-04-15 16:06:00,
2013-04-15 12:21:00,48.2,30.9,30.25,ENE,67,2.2,-999.0,51,-99.99,,,0.00,Acu-Link.com,2013-04-15 16:21:00,
2013-04-15 12:36:00,48.6,30.3,30.24,NW,315,4.7,-999.0,49,-99.99,,,0.00,Acu-Link.com,2013-04-15 16:36:00,
2013-04-15 12:51:00,47.8,30.1,30.23,SSE,157,2.7,-999.0,50,-99.99,,,0.00,Acu-Link.com,2013-04-15 16:51:00,
2013-04-15 13:07:00,49.3,31.5,30.23,SSW,202,2.7,-999.0,50,-99.99,,,0.00,Acu-Link.com,2013-04-15 17:07:00,
2013-04-15 13:22:00,50.5,27.7,30.23,West,270,7.3,-999.0,41,-99.99,,,0.00,Acu-Link.com,2013-04-15 17:22:00,
2013-04-15 13:38:00,50.0,27.2,30.23,WSW,247,6.8,-999.0,41,-99.99,,,0.00,Acu-Link.com,2013-04-15 17:38:00,
2013-04-15 13:53:00,51.1,26.4,30.23,West,270,2.2,-999.0,38,-99.99,,,0.00,Acu-Link.com,2013-04-15 17:53:00,
2013-04-15 14:09:00,51.6,26.8,30.23,ESE,112,2.7,-999.0,38,-99.99,,,0.00,Acu-Link.com,2013-04-15 18:09:00,
2013-04-15 14:24:00,51.8,27.0,30.22,South,180,2.2,-999.0,38,-99.99,,,0.00,Acu-Link.com,2013-04-15 18:24:00,
2013-04-15 14:39:00,51.8,27.0,30.22,West,270,6.3,-999.0,38,-99.99,,,0.00,Acu-Link.com,2013-04-15 18:39:00,
2013-04-15 14:54:00,51.8,25.7,30.22,WSW,247,4.7,-999.0,36,-99.99,,,0.00,Acu-Link.com,2013-04-15 18:54:00,
2013-04-15 15:10:00,52.9,25.3,30.21,South,180,3.2,-999.0,34,-99.99,,,0.00,Acu-Link.com,2013-04-15 19:10:00,
2013-04-15 15:25:00,52.3,26.8,30.21,South,180,3.2,-999.0,37,-99.99,,,0.00,Acu-Link.com,2013-04-15 19:25:00,
2013-04-15 16:10:00,58.1,29.9,30.20,South,180,3.2,-999.0,34,-99.99,,,0.00,Acu-Link.com,2013-04-15 20:10:00,
2013-04-15 16:26:00,57.4,29.3,30.19,SSE,157,1.1,-999.0,34,-99.99,,,0.00,Acu-Link.com,2013-04-15 20:26:00,
2013-04-15 16:56:00,57.0,29.6,30.18,SE,135,2.7,-999.0,35,-99.99,,,0.00,Acu-Link.com,2013-04-15 20:56:00,
2013-04-15 17:11:00,56.7,29.4,30.18,ESE,112,2.2,-999.0,35,-99.99,,,0.00,Acu-Link.com,2013-04-15 21:11:00,
2013-04-15 17:26:00,57.7,31.6,30.19,South,180,1.1,-999.0,37,-99.99,,,0.00,Acu-Link.com,2013-04-15 21:26:00,
2013-04-15 17:42:00,57.9,30.4,30.18,ENE,67,1.1,-999.0,35,-99.99,,,0.00,Acu-Link.com,2013-04-15 21:42:00,
2013-04-15 17:57:00,56.7,28.7,30.17,SSE,157,2.2,-999.0,34,-99.99,,,0.00,Acu-Link.com,2013-04-15 21:57:00,
2013-04-15 18:12:00,55.8,29.9,30.17,NNE,22,1.1,-999.0,37,-99.99,,,0.00,Acu-Link.com,2013-04-15 22:12:00,
2013-04-15 18:27:00,54.9,29.8,30.18,SSE,157,1.7,-999.0,38,-99.99,,,0.00,Acu-Link.com,2013-04-15 22:27:00,
2013-04-15 18:42:00,52.7,29.1,30.18,NW,315,0.0,-999.0,40,-99.99,,,0.00,Acu-Link.com,2013-04-15 22:42:00,
2013-04-15 18:58:00,47.8,28.6,30.19,ESE,112,2.2,-999.0,47,-99.99,,,0.00,Acu-Link.com,2013-04-15 22:58:00,
2013-04-15 19:13:00,46.6,28.5,30.20,SSE,157,2.2,-999.0,49,-99.99,,,0.00,Acu-Link.com,2013-04-15 23:13:00,
2013-04-15 19:28:00,46.4,28.3,30.22,NNW,337,0.0,-999.0,49,-99.99,,,0.00,Acu-Link.com,2013-04-15 23:28:00,
2013-04-15 19:43:00,45.7,28.6,30.22,NNE,22,0.0,-999.0,51,-99.99,,,0.00,Acu-Link.com,2013-04-15 23:43:00,
2013-04-15 19:59:00,44.2,28.2,30.20,ENE,67,0.0,-999.0,53,-99.99,,,0.00,Acu-Link.com,2013-04-15 23:59:00,
2013-04-15 20:14:00,43.9,27.9,30.20,ESE,112,3.7,-999.0,53,-99.99,,,0.00,Acu-Link.com,2013-04-16 00:14:00,
2013-04-15 20:29:00,43.5,27.5,30.19,ESE,112,5.3,-999.0,53,-99.99,,,0.00,Acu-Link.com,2013-04-16 00:29:00,
2013-04-15 20:44:00,42.6,28.0,30.20,ESE,112,4.7,-999.0,56,-99.99,,,0.00,Acu-Link.com,2013-04-16 00:44:00,
2013-04-15 20:59:00,41.7,28.9,30.21,ESE,112,4.7,-999.0,60,-99.99,,,0.00,Acu-Link.com,2013-04-16 00:59:00,
2013-04-15 21:15:00,41.5,29.5,30.21,ESE,112,3.2,-999.0,62,-99.99,,,0.00,Acu-Link.com,2013-04-16 01:15:00,
2013-04-15 21:30:00,41.4,30.5,30.23,West,270,1.7,-999.0,65,-99.99,,,0.00,Acu-Link.com,2013-04-16 01:30:00,
2013-04-15 21:45:00,40.1,30.4,30.22,ESE,112,0.0,-999.0,68,-99.99,,,0.00,Acu-Link.com,2013-04-16 01:45:00,
2013-04-15 22:00:00,40.3,31.0,30.23,ESE,112,3.2,-999.0,69,-99.99,,,0.00,Acu-Link.com,2013-04-16 02:00:00,
2013-04-15 22:15:00,39.9,30.9,30.23,ESE,112,2.2,-999.0,70,-99.99,,,0.00,Acu-Link.com,2013-04-16 02:15:00,
2013-04-15 22:31:00,40.1,31.1,30.24,East,90,4.2,-999.0,70,-99.99,,,0.00,Acu-Link.com,2013-04-16 02:31:00,
2013-04-15 23:01:00,38.8,31.2,30.25,ESE,112,3.7,-999.0,74,-99.99,,,0.00,Acu-Link.com,2013-04-16 03:01:00,
2013-04-15 23:16:00,38.5,30.9,30.24,SE,135,6.3,-999.0,74,-99.99,,,0.00,Acu-Link.com,2013-04-16 03:16:00,
2013-04-15 23:31:00,38.3,31.1,30.25,ESE,112,2.7,-999.0,75,-99.99,,,0.00,Acu-Link.com,2013-04-16 03:31:00,
2013-04-15 23:47:00,37.8,31.2,30.24,NE,45,1.1,-999.0,77,-99.99,,,0.00,Acu-Link.com,2013-04-16 03:47:00,